Погода в Новомихайловском

Россия / Краснодарский край     45°17′21″N   41°00′24″E
темп.,
°C
ветер,
м/с
пор.,
м/с
влажн.,
%
обл.,
%
осадки,
мм/ч
давл.,
гПа
погр.,
м
15 мая, сб
сб1500:00+19ююз2289100 0.0 101122
03:00+16юз36962 0.0 101197
06:00+16юз47940 0.0 1013191
09:00+20з45775 0.0 1014418
12:00+24зсз34695 0.0 1014694
15:00+26с23635 0.0 1013952
18:00+26с127351 0.0 1012829
21:00+20ссв228441 0.1 101212
16 мая, вс
вс1600:00+19ссв349245 0.0 101162
03:00+18в22955 0.0 101033
06:00+19в129155 0.0 101057
09:00+24всв227615 0.0 1008532
12:00+27всв3464100 0.0 10071066
15:00+28в666556 0.0 10051519
18:00+24в4871100 0.0 1004218
21:00+20в47725 0.0 100496
17 мая, пн
пн1700:00+17в466711 0.0 100387
03:00+16вюв35774 0.0 100368
06:00+17ююв3587100 0.0 1004118
09:00+22зсз457998 0.0 1006547
12:00+23сз7967100 0.0 10071021
15:00+22зсз567397 0.3 10091048
18:00+18зсз4788100 0.4 1010256
21:00+16зюз4795100 1.0 1011176
18 мая, вт
вт1800:00+16зюз41097100 1.1 1011397
03:00+14з4997100 3.6 1012364
06:00+14зюз3596100 2.6 1014241
09:00+17з4683100 2.7 1013625
12:00+21з566716 0.0 10141224
15:00+22зсз456014 0.1 10131649
18:00+20з3574100 0.1 1014239
21:00+16зюз3589100 0.1 101580
19 мая, ср
ср1900:00+13юз33905 0.0 101530
03:00+13ю22865 0.0 101512
06:00+15ююв12875 0.0 101657
09:00+21ююв34715 0.0 1015599
12:00+24юв33565 0.0 10141220
15:00+26вюв345313 0.0 10121453
18:00+24вюв357168 0.0 1011150
21:00+19вюв412820 0.0 1011229